| time (UTC) | temp F | wind direction | speed knots | gust knots | rain 1hr in | rain 24hr in | rain mn in | humidity % | barometer mb |
| 20260505111203 | 44 | 180 | 1.7 | 3.5 | 0.00 | 0.01 | 0.00 | 98 | 1002.6 |
| 20260505102204 | 41 | 191 | 0.0 | 1.7 | 0.00 | 0.01 | 0.00 | 98 | 1002.7 |
| 20260505101204 | 40 | 191 | 0.0 | 0.9 | 0.00 | 0.01 | 0.00 | 98 | 1002.8 |
| 20260505100204 | 39 | 192 | 0.0 | 2.6 | 0.00 | 0.01 | 0.00 | 97 | 1002.7 |
| 20260505095204 | 39 | 192 | 0.9 | 2.6 | 0.00 | 0.01 | 0.00 | 97 | 1002.7 |
| 20260505094224 | 39 | 193 | 0.0 | 2.6 | 0.00 | 0.01 | 0.00 | 96 | 1002.7 |
| 20260505093204 | 39 | 193 | 0.0 | 0.0 | 0.00 | 0.01 | 0.00 | 96 | 1002.7 |
| 20260505092203 | 39 | 193 | 0.0 | 2.6 | 0.00 | 0.01 | 0.00 | 96 | 1002.8 |
| 20260505091204 | 39 | 193 | 0.0 | 0.9 | 0.00 | 0.01 | 0.00 | 96 | 1002.8 |
| 20260505090203 | 39 | 193 | 0.0 | 0.9 | 0.00 | 0.01 | 0.00 | 96 | 1003.0 |
| 20260505085203 | 39 | 193 | 0.0 | 0.9 | 0.00 | 0.01 | 0.00 | 96 | 1003.0 |
| 20260505084203 | 39 | 193 | 0.0 | 2.6 | 0.00 | 0.01 | 0.00 | 96 | 1003.0 |
| 20260505083203 | 39 | 194 | 0.0 | 0.9 | 0.00 | 0.01 | 0.00 | 96 | 1003.0 |
| 20260505082203 | 39 | 194 | 0.0 | 1.7 | 0.00 | 0.01 | 0.00 | 95 | 1003.0 |
| 20260505081203 | 39 | 193 | 0.0 | 1.7 | 0.00 | 0.01 | 0.00 | 95 | 1003.1 |
| 20260505080203 | 39 | 193 | 0.0 | 1.7 | 0.00 | 0.01 | 0.00 | 95 | 1002.9 |
| 20260505075203 | 39 | 194 | 0.0 | 0.0 | 0.00 | 0.01 | 0.00 | 96 | 1002.9 |
| 20260505074202 | 39 | 194 | 0.0 | 0.0 | 0.00 | 0.01 | 0.00 | 96 | 1003.0 |
| 20260505072205 | 39 | 194 | 0.0 | 0.0 | 0.00 | 0.01 | 0.00 | 96 | 1003.0 |
| 20260505071204 | 39 | 194 | 0.0 | 0.0 | 0.00 | 0.01 | 0.00 | 95 | 1003.1 |
| 20260505070205 | 38 | 194 | 0.0 | 4.3 | 0.00 | 0.01 | 0.00 | 93 | 1003.1 |
| 20260505065204 | 38 | 209 | 0.9 | 1.7 | 0.00 | 0.01 | 0.00 | 92 | 1003.0 |
| 20260505064204 | 39 | 210 | 0.0 | 0.0 | 0.00 | 0.01 | 0.00 | 92 | 1002.9 |
| 20260505063204 | 39 | 210 | 0.0 | 0.0 | 0.00 | 0.01 | 0.00 | 91 | 1003.0 |
| 20260505062246 | 39 | 210 | 0.0 | 0.0 | 0.00 | 0.01 | 0.00 | 91 | 1003.0 |
| 20260505061203 | 40 | 210 | 0.0 | 0.0 | 0.00 | 0.01 | 0.00 | 92 | 1002.9 |
| 20260505060204 | 40 | 210 | 0.0 | 0.0 | 0.00 | 0.01 | 0.00 | 93 | 1002.9 |
| 20260505055204 | 40 | 210 | 0.0 | 3.5 | 0.00 | 0.01 | 0.00 | 93 | 1002.7 |
| 20260505054203 | 40 | 226 | 2.6 | 3.5 | 0.00 | 0.01 | 0.00 | 93 | 1002.6 |
| 20260505053203 | 40 | 245 | 0.9 | 1.7 | 0.00 | 0.01 | 0.00 | 93 | 1002.6 |
| 20260505052203 | 40 | 245 | 0.0 | 0.0 | 0.00 | 0.01 | 0.00 | 93 | 1002.6 |
| 20260505050203 | 41 | 245 | 0.0 | 0.0 | 0.00 | 0.01 | 0.00 | 92 | 1002.6 |
| 20260505041202 | 41 | 245 | 0.0 | 0.0 | 0.00 | 0.01 | 0.00 | 93 | 1002.7 |
| 20260505035224 | 41 | 245 | 0.0 | 0.0 | 0.00 | 0.01 | 0.01 | 93 | 1002.8 |
| 20260505034224 | 41 | 245 | 0.0 | 0.0 | 0.00 | 0.01 | 0.01 | 94 | 1002.7 |
| 20260505033203 | 41 | 244 | 0.0 | 2.6 | 0.00 | 0.01 | 0.01 | 94 | 1002.7 |
| 20260505032203 | 41 | 245 | 0.0 | 1.7 | 0.00 | 0.01 | 0.01 | 94 | 1002.6 |
| 20260505031203 | 41 | 244 | 0.9 | 3.5 | 0.00 | 0.01 | 0.01 | 94 | 1002.7 |
| 20260505030202 | 40 | 245 | 0.0 | 3.5 | 0.00 | 0.01 | 0.01 | 94 | 1002.7 |
| 20260505025233 | 40 | 245 | 0.0 | 1.7 | 0.00 | 0.01 | 0.01 | 93 | 1002.7 |
| 20260505024204 | 40 | 245 | 0.0 | 2.6 | 0.00 | 0.01 | 0.01 | 92 | 1002.7 |
| 20260505023225 | 40 | 244 | 0.0 | 1.7 | 0.00 | 0.01 | 0.01 | 92 | 1002.7 |
| 20260505021204 | 40 | 244 | 0.0 | 2.6 | 0.00 | 0.01 | 0.01 | 91 | 1002.8 |
| 20260505020204 | 40 | 245 | 0.0 | 0.0 | 0.00 | 0.01 | 0.01 | 91 | 1002.8 |
| 20260505015203 | 40 | 245 | 0.0 | 0.0 | 0.00 | 0.01 | 0.01 | 89 | 1002.8 |
| 20260505014203 | 40 | 244 | 0.9 | 1.7 | 0.00 | 0.01 | 0.01 | 88 | 1002.6 |
| 20260505013204 | 40 | 244 | 0.0 | 2.6 | 0.00 | 0.01 | 0.01 | 87 | 1002.6 |
| 20260505012203 | 40 | 244 | 0.0 | 2.6 | 0.00 | 0.01 | 0.01 | 86 | 1002.3 |
| 20260505011204 | 41 | 245 | 0.0 | 0.0 | 0.00 | 0.01 | 0.01 | 84 | 1002.3 |
| 20260505010203 | 41 | 245 | 0.0 | 0.0 | 0.00 | 0.01 | 0.01 | 83 | 1002.3 |
| 20260505005203 | 42 | 245 | 0.0 | 0.0 | 0.00 | 0.01 | 0.01 | 82 | 1002.3 |
| 20260505004203 | 42 | 245 | 0.0 | 0.0 | 0.00 | 0.01 | 0.01 | 79 | 1002.2 |
| 20260505003203 | 43 | 245 | 0.0 | 1.7 | 0.00 | 0.01 | 0.01 | 78 | 1002.2 |
| 20260505002223 | 44 | 245 | 0.0 | 0.0 | 0.00 | 0.01 | 0.01 | 76 | 1001.7 |
| 20260505001203 | 45 | 245 | 0.0 | 1.7 | 0.00 | 0.01 | 0.01 | 74 | 1001.5 |
| 20260504235203 | 47 | 245 | 0.0 | 2.6 | 0.00 | 0.01 | 0.01 | 72 | 1001.3 |
| 20260504234203 | 47 | 245 | 0.0 | 4.3 | 0.00 | 0.02 | 0.01 | 72 | 1001.1 |
| 20260504233202 | 48 | 267 | 1.7 | 10.4 | 0.00 | 0.02 | 0.01 | 71 | 1001.1 |
| 20260504232203 | 48 | 274 | 3.5 | 9.6 | 0.00 | 0.02 | 0.01 | 70 | 1000.7 |
| 20260504231205 | 49 | 257 | 4.3 | 10.4 | 0.00 | 0.02 | 0.01 | 69 | 1000.8 |
| 20260504230206 | 49 | 231 | 0.9 | 11.3 | 0.00 | 0.02 | 0.01 | 69 | 1000.6 |
| 20260504225205 | 49 | 227 | 3.5 | 8.7 | 0.00 | 0.02 | 0.01 | 68 | 1000.6 |
| 20260504224205 | 49 | 263 | 2.6 | 7.8 | 0.00 | 0.02 | 0.01 | 68 | 1000.5 |
| 20260504223204 | 50 | 268 | 5.2 | 13.9 | 0.00 | 0.03 | 0.01 | 67 | 1000.5 |
| 20260504222205 | 50 | 248 | 4.3 | 19.1 | 0.00 | 0.03 | 0.01 | 66 | 1000.3 |
| 20260504221204 | 50 | 240 | 1.7 | 9.6 | 0.00 | 0.03 | 0.01 | 67 | 1000.3 |
| 20260504220225 | 50 | 231 | 1.7 | 13.9 | 0.00 | 0.03 | 0.01 | 68 | 1000.3 |
| 20260504215204 | 50 | 224 | 5.2 | 12.2 | 0.00 | 0.03 | 0.01 | 67 | 1000.3 |
| 20260504214225 | 50 | 234 | 2.6 | 9.6 | 0.00 | 0.03 | 0.01 | 69 | 1000.1 |
| 20260504213204 | 50 | 239 | 4.3 | 11.3 | 0.00 | 0.03 | 0.01 | 68 | 1000.1 |
| 20260504212204 | 50 | 268 | 7.0 | 12.2 | 0.00 | 0.03 | 0.01 | 69 | 1000.0 |
| 20260504211204 | 50 | 266 | 4.3 | 11.3 | 0.00 | 0.03 | 0.01 | 68 | 999.8 |
| 20260504210204 | 50 | 246 | 5.2 | 13.0 | 0.00 | 0.03 | 0.01 | 68 | 999.8 |
| 20260504205225 | 50 | 251 | 3.5 | 13.0 | 0.00 | 0.04 | 0.01 | 69 | 999.7 |
| 20260504204203 | 50 | 269 | 1.7 | 7.8 | 0.00 | 0.04 | 0.01 | 71 | 999.7 |
| 20260504203204 | 49 | 270 | 2.6 | 7.0 | 0.00 | 0.05 | 0.01 | 74 | 999.8 |
| 20260504202203 | 49 | 260 | 3.5 | 7.8 | 0.00 | 0.05 | 0.01 | 76 | 999.8 |
| 20260504201203 | 48 | 290 | 4.3 | 8.7 | 0.00 | 0.06 | 0.01 | 79 | 999.8 |
| 20260504200204 | 48 | 239 | 0.0 | 5.2 | 0.00 | 0.06 | 0.01 | 79 | 999.8 |
| 20260504195203 | 48 | 256 | 1.7 | 5.2 | 0.01 | 0.07 | 0.01 | 78 | 999.8 |
| 20260504194203 | 48 | 243 | 0.9 | 6.1 | 0.01 | 0.07 | 0.01 | 78 | 999.8 |
| 20260504193203 | 49 | 229 | 0.0 | 8.7 | 0.01 | 0.08 | 0.01 | 79 | 999.8 |
| 20260504192203 | 49 | 270 | 2.6 | 6.1 | 0.01 | 0.09 | 0.01 | 78 | 999.8 |
| 20260504191223 | 49 | 263 | 5.2 | 10.4 | 0.01 | 0.09 | 0.01 | 74 | 999.7 |
| 20260504185203 | 51 | 241 | 0.9 | 8.7 | 0.00 | 0.10 | 0.00 | 70 | 999.7 |
| 20260504184224 | 52 | 255 | 0.9 | 11.3 | 0.00 | 0.10 | 0.00 | 62 | 999.6 |
| 20260504183203 | 52 | 257 | 2.6 | 8.7 | 0.00 | 0.11 | 0.00 | 57 | 999.6 |
| 20260504182203 | 52 | 260 | 1.7 | 13.9 | 0.00 | 0.12 | 0.00 | 57 | 999.6 |
| 20260504181205 | 53 | 250 | 5.2 | 13.9 | 0.00 | 0.12 | 0.00 | 53 | 999.3 |
| 20260504180205 | 54 | 230 | 4.3 | 11.3 | 0.00 | 0.13 | 0.00 | 50 | 999.3 |
| 20260504175205 | 55 | 251 | 4.3 | 12.2 | 0.00 | 0.13 | 0.00 | 45 | 999.1 |
| 20260504174204 | 56 | 244 | 3.5 | 12.2 | 0.00 | 0.14 | 0.00 | 40 | 999.0 |
| 20260504173226 | 56 | 257 | 3.5 | 8.7 | 0.00 | 0.14 | 0.00 | 37 | 998.9 |
| 20260504172205 | 56 | 275 | 6.1 | 13.9 | 0.00 | 0.14 | 0.00 | 36 | 998.9 |
| 20260504171204 | 57 | 268 | 9.6 | 16.5 | 0.00 | 0.14 | 0.00 | 34 | 998.6 |
| 20260504170205 | 58 | 241 | 5.2 | 12.2 | 0.00 | 0.15 | 0.00 | 31 | 998.6 |
| 20260504160204 | 58 | 300 | 7.8 | 14.8 | 0.00 | 0.18 | 0.00 | 31 | 998.6 |
| 20260504150224 | 55 | 252 | 5.2 | 13.0 | 0.00 | 0.23 | 0.00 | 39 | 999.6 |
| 20260504141203 | 52 | 275 | 2.6 | 13.0 | 0.00 | 0.27 | 0.00 | 47 | 1000.2 |